Regional Weather Roundup
Issued by NWS Albany, NY

Home | Current Version | Previous Version | Text Only | Print | Product List | Glossary On
Versions: 1 2 3 4 5 6 7 8 9 10 11 12 13 14 15 16 17 18 19 20 21 22 23 24 25 26 27 28 29 30 31 32 33 34 35 36 37 38 39 40 41 42 43 44 45 46 47 48 49 50
000
ASUS41 KALY 241110
RWRALY

NEW YORK STATE HOURLY WEATHER ROUNDUP
NATIONAL WEATHER SERVICE ALBANY NY
600 AM EST MON NOV 24 2014

NOTE: "FAIR" INDICATES FEW OR NO CLOUDS BELOW 12,000 FEET WITH NO
SIGNIFICANT WEATHER AND/OR NO OBSTRUCTIONS TO VISIBILITY.

NYZ032-033-038>043-046>054-057>066-NYZ062>081-241200-
EAST


CITY           SKY/WX    TMP DP  RH WIND       PRES   REMARKS
ALBANY         LGT RAIN  46  44  93 S3        29.65F FOG
GLENS FALLS    RAIN      41  40  96 CALM      29.66F FOG
POUGHKEEPSIE   LGT RAIN  61  57  87 SE12G20   29.66F FOG
NEWBURGH       RAIN      59  59 100 SE12G22   29.67F FOG
MONTGOMERY     LGT RAIN  61  58  90 S15G33    29.63F
WHITE PLAINS   LGT RAIN  60  59  96 S20G35    29.72F FOG
ISLIP          LGT RAIN  60  58  92 S25G39    29.75F FOG
NEW YORK CITY  LGT RAIN  61  59  93 S31G44    29.70F FOG
CENTRAL PARK   LGT RAIN  61  58  90 MISG      29.73F FOG
$$

NYZ005>009-017-018-044>046-055-056-241200-
CENTRAL


CITY           SKY/WX    TMP DP  RH WIND       PRES   REMARKS
FULTON         CLOUDY    47  44  90 SE5       29.45F
SYRACUSE       CLOUDY    52  49  89 E10G21    29.47F
ROME           LGT RAIN  45  44  97 SE12      29.57S
ELMIRA         CLOUDY    60  54  80 S15G24    29.46F
BINGHAMTON     CLOUDY    53  52  96 S12       29.53R
MONTICELLO     CLOUDY    52  52 100 S12       29.64F
$$

NYZ026>034-041>043-241200-
NORTH


CITY           SKY/WX    TMP DP  RH WIND       PRES   REMARKS
WATERTOWN      CLOUDY    58  47  66 S17G32    29.39F
FORT DRUM      NOT AVBL
MASSENA        HVY RAIN  51  48  89 E9        29.47F FOG
SARANAC LAKE   LGT RAIN  49  32  52 SE14G23   29.51F
PLATTSBURGH    NOT AVBL
$$

NYZ001>004-010>016-019>021-241200-
WEST


CITY           SKY/WX    TMP DP  RH WIND       PRES   REMARKS
NIAGARA FALLS  CLOUDY    57  49  74 S23G33    29.23F
BUFFALO        CLOUDY    56  48  74 S23G31    29.26F
DUNKIRK        CLOUDY    57  51  80 S28G39    29.27S
JAMESTOWN      MOCLDY    52  48  87 S21G31    29.34R
WELLSVILLE     LGT RAIN  54  49  83 S20G32    29.42S
ROCHESTER      MOCLDY    58  49  72 S15G25    29.33F
PENN YAN       CLOUDY    58  51  78 S16G31    29.40F
$$

             KEY
       WCI = WIND CHILL INDEX
       VSB = VISIBILITY
       HX  = HEAT INDEX
$$


USA.gov is the U.S. government's official web portal to all federal, state and local government web resources and services.